MSC746 HESH-UDYZ

Flight info

Callsign MSC746
Flight time 1h 47m
Altitude 36000
Route NOVPA2L NOVPA J981 DATOK L550 PASOS/N0459F350 DCT VESAR/N0459F360 DCT INPOR/N0457F370 UT284 SIV UA4 ERZ UB374 INDUR
Aircraft A320/M-SDE3FGHIRWY/LB1

Departure

Time 2026-05-06 14:41
Airport Sharm El Sheikh International Airport (HESH)

Arrival

Time 2026-05-06 16:29
Airport Zvartnots International Airport (UDYZ)
Time Latitude Longitude Altitude Speed Heading
2026-05-06 14:15 27.98269 34.39225 172 ft 0 kts 133°
2026-05-06 14:28 27.98277 34.39215 172 ft 3 kts 134°
2026-05-06 14:29 27.98291 34.39199 172 ft 3 kts 135°
2026-05-06 14:29 27.98305 34.39183 172 ft 3 kts 131°
2026-05-06 14:29 27.98314 34.39173 172 ft 3 kts 71°
2026-05-06 14:29 27.98313 34.39170 172 ft 2 kts 43°
2026-05-06 14:30 27.98301 34.39157 172 ft 2 kts 43°
2026-05-06 14:30 27.98299 34.39155 172 ft 0 kts 43°
2026-05-06 14:34 27.98305 34.39162 172 ft 8 kts 43°
2026-05-06 14:35 27.98378 34.39238 172 ft 13 kts 46°
2026-05-06 14:35 27.98358 34.39310 172 ft 11 kts 137°
2026-05-06 14:35 27.98308 34.39373 172 ft 14 kts 132°
2026-05-06 14:35 27.98231 34.39386 172 ft 12 kts 219°
2026-05-06 14:36 27.98174 34.39327 172 ft 10 kts 223°
2026-05-06 14:36 27.98125 34.39276 172 ft 9 kts 223°
2026-05-06 14:36 27.98083 34.39232 172 ft 8 kts 223°
2026-05-06 14:36 27.98047 34.39194 172 ft 7 kts 222°
2026-05-06 14:37 27.97995 34.39141 172 ft 11 kts 221°
2026-05-06 14:37 27.97938 34.39084 172 ft 16 kts 222°
2026-05-06 14:37 27.97838 34.38982 172 ft 21 kts 222°
2026-05-06 14:37 27.97727 34.38870 172 ft 22 kts 221°
2026-05-06 14:38 27.97608 34.38752 172 ft 24 kts 221°
2026-05-06 14:38 27.97480 34.38607 172 ft 32 kts 222°
2026-05-06 14:38 27.97308 34.38429 172 ft 34 kts 222°
2026-05-06 14:38 27.97133 34.38249 172 ft 34 kts 222°
2026-05-06 14:39 27.97069 34.38182 172 ft 1 kts 224°
2026-05-06 14:39 27.97047 34.38158 172 ft 7 kts 224°
2026-05-06 14:39 27.97019 34.38128 173 ft 3 kts 218°
2026-05-06 14:39 27.96989 34.38123 173 ft 4 kts 165°
2026-05-06 14:40 27.96956 34.38157 174 ft 10 kts 133°
2026-05-06 14:40 27.96914 34.38208 173 ft 8 kts 133°
2026-05-06 14:40 27.96878 34.38254 173 ft 7 kts 127°
2026-05-06 14:40 27.96925 34.38329 173 ft 35 kts 44°
2026-05-06 14:41 27.97295 34.38717 175 ft 106 kts 43°
2026-05-06 14:41 27.97979 34.39428 176 ft 157 kts 43°
2026-05-06 14:41 27.98871 34.40336 502 ft 176 kts 37°
2026-05-06 14:41 27.99918 34.40968 1371 ft 169 kts 26°
2026-05-06 14:42 28.00982 34.41545 2000 ft 175 kts 27°
2026-05-06 14:42 28.02139 34.42193 2299 ft 196 kts 27°
2026-05-06 14:42 28.03426 34.42921 2566 ft 217 kts 26°
2026-05-06 14:42 28.04839 34.43723 2926 ft 238 kts 25°
2026-05-06 14:43 28.06383 34.44603 3400 ft 258 kts 25°
2026-05-06 14:43 28.08025 34.45537 4129 ft 268 kts 25°
2026-05-06 14:43 28.09707 34.46493 4965 ft 273 kts 26°
2026-05-06 14:43 28.11415 34.47467 5836 ft 277 kts 26°
2026-05-06 14:44 28.13236 34.48201 6672 ft 281 kts 11°
2026-05-06 14:44 28.15189 34.48398 7484 ft 285 kts 360°
2026-05-06 14:44 28.17187 34.48424 8310 ft 289 kts 359°
2026-05-06 14:45 28.21258 34.48480 9848 ft 297 kts 359°
2026-05-06 14:45 28.23335 34.48612 10554 ft 304 kts
2026-05-06 14:45 28.25462 34.49068 10813 ft 327 kts
2026-05-06 14:45 28.27775 34.49596 11015 ft 350 kts
2026-05-06 14:46 28.30208 34.50164 11481 ft 362 kts
2026-05-06 14:46 28.32693 34.50745 12119 ft 367 kts
2026-05-06 14:46 28.35214 34.51333 12770 ft 372 kts
2026-05-06 14:46 28.37765 34.51926 13444 ft 376 kts
2026-05-06 14:47 28.40339 34.52522 14127 ft 379 kts
2026-05-06 14:47 28.42934 34.53121 14797 ft 383 kts
2026-05-06 14:47 28.45554 34.53727 15449 ft 386 kts
2026-05-06 14:47 28.47302 34.54131 15862 ft 388 kts
2026-05-06 14:48 28.49958 34.54745 16485 ft 391 kts
2026-05-06 14:48 28.52637 34.55360 17096 ft 394 kts
2026-05-06 14:48 28.55336 34.55979 17685 ft 398 kts
2026-05-06 14:48 28.58059 34.56606 18273 ft 401 kts
2026-05-06 14:49 28.60801 34.57242 18838 ft 404 kts
2026-05-06 14:49 28.63566 34.57887 19353 ft 407 kts
2026-05-06 14:49 28.66358 34.58538 19850 ft 411 kts
2026-05-06 14:49 28.69173 34.59192 20351 ft 415 kts
2026-05-06 14:50 28.72010 34.59850 20825 ft 418 kts
2026-05-06 14:50 28.74874 34.60510 21312 ft 422 kts
2026-05-06 14:50 28.77759 34.61176 21800 ft 424 kts
2026-05-06 14:50 28.80670 34.61850 21998 ft 428 kts
2026-05-06 14:51 28.88016 34.63564 22006 ft 426 kts
2026-05-06 14:51 28.99665 34.66017 21954 ft 421 kts 356°
2026-05-06 14:51 29.10251 34.61742 22975 ft 409 kts 322°
2026-05-06 14:51 29.19854 34.54493 24736 ft 418 kts 322°
2026-05-06 14:52 29.29666 34.47034 26242 ft 427 kts 322°
2026-05-06 14:52 29.39641 34.39420 27697 ft 435 kts 321°
2026-05-06 14:52 29.49797 34.31663 28935 ft 442 kts 321°
2026-05-06 14:52 29.60126 34.23751 30040 ft 449 kts 321°
2026-05-06 14:53 29.71237 34.16941 31457 ft 450 kts 326°
2026-05-06 14:53 29.82250 34.10197 32870 ft 447 kts 326°
2026-05-06 14:53 29.93195 34.03525 34170 ft 444 kts 325°
2026-05-06 14:53 30.04063 33.96871 35344 ft 442 kts 325°
2026-05-06 14:54 30.14927 33.90186 36057 ft 445 kts 324°
2026-05-06 14:54 30.36675 33.76804 36103 ft 439 kts 324°
2026-05-06 14:55 30.58373 33.63357 36020 ft 444 kts 324°
2026-05-06 14:55 30.79932 33.49940 36171 ft 437 kts 324°
2026-05-06 14:56 31.01433 33.36476 36046 ft 440 kts 324°
2026-05-06 14:56 31.22648 33.23128 36101 ft 435 kts 324°
2026-05-06 14:57 31.45574 33.13887 36117 ft 459 kts 351°
2026-05-06 14:57 31.71126 33.12546 36156 ft 461 kts 350°
2026-05-06 14:57 31.83925 33.11905 37063 ft 460 kts 350°
2026-05-06 14:58 31.96638 33.11258 38017 ft 455 kts 350°
2026-05-06 14:58 32.22200 33.10208 38067 ft 474 kts 359°
2026-05-06 14:59 32.48338 33.16331 38183 ft 473 kts
2026-05-06 14:59 32.61254 33.19435 38005 ft 477 kts
2026-05-06 14:59 32.74168 33.22513 38005 ft 472 kts
2026-05-06 14:59 32.87027 33.25608 38178 ft 468 kts
2026-05-06 15:00 32.99881 33.28700 38082 ft 473 kts
2026-05-06 15:00 33.12755 33.31816 37943 ft 473 kts
2026-05-06 15:00 33.25564 33.34922 38116 ft 467 kts
2026-05-06 15:01 33.51209 33.41158 37949 ft 473 kts
2026-05-06 15:01 33.64029 33.44283 38114 ft 466 kts
2026-05-06 15:01 33.76825 33.47433 38095 ft 471 kts
2026-05-06 15:01 33.89665 33.50601 37960 ft 472 kts
2026-05-06 15:02 34.02475 33.53768 38128 ft 466 kts
2026-05-06 15:02 34.27885 33.60061 37952 ft 470 kts
2026-05-06 15:02 34.40636 33.63246 38110 ft 465 kts
2026-05-06 15:03 34.53370 33.66424 38097 ft 469 kts
2026-05-06 15:03 34.66122 33.69617 37950 ft 469 kts
2026-05-06 15:03 34.78836 33.72807 38107 ft 463 kts
2026-05-06 15:04 35.04208 33.79215 37955 ft 467 kts
2026-05-06 15:04 35.16858 33.82438 38125 ft 462 kts
2026-05-06 15:04 35.29504 33.85657 38111 ft 464 kts
2026-05-06 15:05 35.54844 33.92138 38099 ft 465 kts
2026-05-06 15:05 35.80106 33.98626 38094 ft 463 kts
2026-05-06 15:06 35.86743 34.00355 38096 ft 463 kts
2026-05-06 15:06 35.93060 34.01788 38090 ft 457 kts 360°
2026-05-06 15:07 35.99398 34.02505 38091 ft 458 kts 360°
2026-05-06 15:07 36.05741 34.03219 38084 ft 458 kts 360°
2026-05-06 15:08 36.12089 34.03943 37820 ft 459 kts 360°
2026-05-06 15:08 36.15260 34.04309 37442 ft 457 kts 360°
2026-05-06 15:08 36.18423 34.04676 37123 ft 455 kts
2026-05-06 15:09 36.24714 34.05409 37074 ft 454 kts
2026-05-06 15:09 36.31008 34.06127 37073 ft 454 kts 360°
2026-05-06 15:10 36.37310 34.06846 37073 ft 455 kts 360°
2026-05-06 15:10 36.43615 34.07570 37073 ft 455 kts 360°
2026-05-06 15:11 36.49922 34.08297 37073 ft 455 kts 360°
2026-05-06 15:11 36.56244 34.09023 37077 ft 457 kts 360°
2026-05-06 15:12 36.62575 34.09761 37081 ft 458 kts
2026-05-06 15:12 36.68786 34.11847 37084 ft 471 kts 20°
2026-05-06 15:13 36.74393 34.16188 37080 ft 476 kts 30°
2026-05-06 15:13 36.79860 34.20857 37082 ft 477 kts 30°
2026-05-06 15:14 36.85345 34.25522 37094 ft 477 kts 30°
2026-05-06 15:14 36.90821 34.30193 37084 ft 477 kts 30°
2026-05-06 15:15 36.96299 34.34887 37100 ft 477 kts 30°
2026-05-06 15:15 37.01771 34.39591 37087 ft 477 kts 30°
2026-05-06 15:16 37.07245 34.44275 37102 ft 476 kts 30°
2026-05-06 15:16 37.12680 34.48945 37093 ft 477 kts 30°
2026-05-06 15:17 37.18144 34.53656 37106 ft 477 kts 30°
2026-05-06 15:17 37.23600 34.58379 37089 ft 476 kts 30°
2026-05-06 15:18 37.29057 34.63097 37092 ft 476 kts 30°
2026-05-06 15:18 37.34507 34.67818 37101 ft 476 kts 30°
2026-05-06 15:19 37.39952 34.72549 37094 ft 476 kts 30°
2026-05-06 15:19 37.45399 34.77294 37099 ft 476 kts 30°
2026-05-06 15:20 37.50849 34.82047 37100 ft 477 kts 30°
2026-05-06 15:20 37.56311 34.86810 37105 ft 477 kts 30°
2026-05-06 15:21 37.61764 34.91572 37093 ft 477 kts 30°
2026-05-06 15:21 37.67219 34.96353 37091 ft 477 kts 30°
2026-05-06 15:22 37.72666 35.01141 37080 ft 477 kts 30°
2026-05-06 15:22 37.78126 35.05936 37085 ft 478 kts 30°
2026-05-06 15:23 37.83582 35.10751 37092 ft 479 kts 30°
2026-05-06 15:23 37.89044 35.15583 37089 ft 479 kts 30°
2026-05-06 15:24 37.94508 35.20411 37090 ft 479 kts 31°
2026-05-06 15:24 37.99966 35.25257 37093 ft 479 kts 31°
2026-05-06 15:25 38.05427 35.30108 37101 ft 479 kts 31°
2026-05-06 15:25 38.10888 35.34954 37101 ft 479 kts 31°
2026-05-06 15:26 38.16347 35.39803 37098 ft 479 kts 31°
2026-05-06 15:26 38.21802 35.44666 37105 ft 479 kts 31°
2026-05-06 15:27 38.27249 35.49545 37113 ft 479 kts 31°
2026-05-06 15:27 38.32700 35.54423 37098 ft 479 kts 31°
2026-05-06 15:28 38.38146 35.59312 37101 ft 479 kts 31°
2026-05-06 15:28 38.43586 35.64220 37099 ft 479 kts 31°
2026-05-06 15:29 38.49027 35.69153 37108 ft 480 kts 31°
2026-05-06 15:29 38.54471 35.74086 37106 ft 480 kts 31°
2026-05-06 15:30 38.59919 35.79020 37118 ft 480 kts 31°
2026-05-06 15:30 38.65367 35.83958 37120 ft 480 kts 31°
2026-05-06 15:31 38.70804 35.88894 37124 ft 479 kts 32°
2026-05-06 15:31 38.76234 35.93845 37126 ft 479 kts 32°
2026-05-06 15:32 38.84360 36.01278 37128 ft 478 kts 32°
2026-05-06 15:32 38.89771 36.06252 37115 ft 479 kts 32°
2026-05-06 15:33 38.94273 36.10387 37113 ft 479 kts 32°
2026-05-06 15:33 39.00572 36.16178 37107 ft 479 kts 33°
2026-05-06 15:34 39.05990 36.21165 37115 ft 479 kts 33°
2026-05-06 15:34 39.11396 36.26153 37112 ft 478 kts 33°
2026-05-06 15:35 39.15920 36.30345 37111 ft 478 kts 33°
2026-05-06 15:35 39.21320 36.35341 37109 ft 477 kts 33°
2026-05-06 15:36 39.26680 36.40304 37115 ft 478 kts 33°
2026-05-06 15:36 39.32069 36.45314 37120 ft 477 kts 33°
2026-05-06 15:37 39.37452 36.50339 37120 ft 477 kts 33°
2026-05-06 15:37 39.42835 36.55363 37118 ft 477 kts 33°
2026-05-06 15:38 39.48214 36.60388 37120 ft 477 kts 33°
2026-05-06 15:38 39.53586 36.65419 37120 ft 477 kts 33°
2026-05-06 15:39 39.58953 36.70458 37120 ft 476 kts 34°
2026-05-06 15:39 39.64310 36.75501 37118 ft 476 kts 34°
2026-05-06 15:40 39.69666 36.80550 37122 ft 476 kts 34°
2026-05-06 15:40 39.74822 36.85939 37117 ft 479 kts 46°
2026-05-06 15:41 39.76881 36.89343 37115 ft 480 kts 57°
2026-05-06 15:41 39.78443 36.93181 37104 ft 481 kts 67°
2026-05-06 15:41 39.79471 36.97320 37097 ft 482 kts 78°
2026-05-06 15:41 39.79969 37.01624 37095 ft 482 kts 84°
2026-05-06 15:42 39.80681 37.10292 37100 ft 483 kts 84°
2026-05-06 15:42 39.81380 37.18983 37094 ft 484 kts 84°
2026-05-06 15:43 39.82072 37.27703 37102 ft 485 kts 85°
2026-05-06 15:43 39.82761 37.36427 37104 ft 485 kts 85°
2026-05-06 15:44 39.83449 37.45172 37112 ft 486 kts 85°
2026-05-06 15:44 39.84127 37.53904 37120 ft 485 kts 85°
2026-05-06 15:45 39.84791 37.62637 37121 ft 485 kts 85°
2026-05-06 15:45 39.85447 37.71368 37123 ft 485 kts 85°
2026-05-06 15:46 39.86099 37.80103 37105 ft 486 kts 85°
2026-05-06 15:46 39.86740 37.88873 37104 ft 487 kts 85°
2026-05-06 15:47 39.87375 37.97654 37109 ft 488 kts 85°
2026-05-06 15:47 39.88017 38.06449 37104 ft 488 kts 85°
2026-05-06 15:48 39.88658 38.15250 37114 ft 488 kts 86°
2026-05-06 15:48 39.89285 38.24058 37109 ft 489 kts 86°
2026-05-06 15:49 39.89907 38.32882 37113 ft 490 kts 86°
2026-05-06 15:49 39.90524 38.41720 37114 ft 490 kts 86°
2026-05-06 15:50 39.91144 38.50572 37112 ft 491 kts 86°
2026-05-06 15:50 39.91759 38.59375 37104 ft 492 kts 86°
2026-05-06 15:51 39.92371 38.68250 37096 ft 492 kts 86°
2026-05-06 15:51 39.92971 38.77196 37088 ft 493 kts 86°
2026-05-06 15:52 39.93552 38.86040 37081 ft 494 kts 87°
2026-05-06 15:52 39.93982 38.94974 37078 ft 494 kts 90°
2026-05-06 15:53 39.94079 39.03915 37073 ft 493 kts 92°
2026-05-06 15:53 39.94104 39.12868 37069 ft 495 kts 92°
2026-05-06 15:54 39.94201 39.21826 37061 ft 495 kts 91°
2026-05-06 15:54 39.94368 39.30802 37059 ft 496 kts 91°
2026-05-06 15:55 39.94528 39.39787 37058 ft 496 kts 91°
2026-05-06 15:55 39.94660 39.48786 37060 ft 497 kts 91°
2026-05-06 15:56 39.94767 39.57800 37061 ft 497 kts 92°
2026-05-06 15:56 39.94870 39.66815 37065 ft 498 kts 92°
2026-05-06 15:57 39.94979 39.75841 37069 ft 498 kts 92°
2026-05-06 15:57 39.95079 39.84864 37078 ft 498 kts 92°
2026-05-06 15:58 39.95166 39.93886 37076 ft 498 kts 92°
2026-05-06 15:58 39.95249 40.02915 37082 ft 498 kts 92°
2026-05-06 15:59 39.95327 40.11938 37087 ft 498 kts 92°
2026-05-06 15:59 39.95393 40.20958 37093 ft 498 kts 92°
2026-05-06 16:00 39.95452 40.29979 37092 ft 498 kts 92°
2026-05-06 16:00 39.95504 40.39003 37095 ft 498 kts 92°
2026-05-06 16:01 39.95550 40.48022 37099 ft 498 kts 92°
2026-05-06 16:01 39.95588 40.57052 37101 ft 498 kts 92°
2026-05-06 16:02 39.95618 40.66087 37102 ft 499 kts 93°
2026-05-06 16:02 39.95642 40.75132 37104 ft 499 kts 93°
2026-05-06 16:03 39.95660 40.84178 37102 ft 499 kts 93°
2026-05-06 16:03 39.95676 40.93175 37103 ft 500 kts 93°
2026-05-06 16:04 39.95683 41.02249 37107 ft 501 kts 93°
2026-05-06 16:04 39.95681 41.11326 37113 ft 501 kts 93°
2026-05-06 16:05 39.95690 41.20411 37111 ft 502 kts 90°
2026-05-06 16:05 39.96317 41.29499 37111 ft 504 kts 87°
2026-05-06 16:06 39.97010 41.38598 37118 ft 505 kts 87°
2026-05-06 16:06 39.97692 41.47700 37112 ft 504 kts 87°
2026-05-06 16:07 39.98347 41.56805 37117 ft 504 kts 88°
2026-05-06 16:07 39.98990 41.65905 37119 ft 504 kts 88°
2026-05-06 16:08 39.99635 41.75006 37120 ft 504 kts 87°
2026-05-06 16:08 40.00302 41.84101 37122 ft 504 kts 87°
2026-05-06 16:09 40.00972 41.93192 36984 ft 500 kts 87°
2026-05-06 16:09 40.01297 41.97665 36732 ft 492 kts 88°
2026-05-06 16:09 40.01612 42.02085 36483 ft 489 kts 88°
2026-05-06 16:10 40.01924 42.06496 36233 ft 488 kts 88°
2026-05-06 16:10 40.02232 42.10912 35984 ft 490 kts 88°
2026-05-06 16:10 40.02539 42.15347 35735 ft 492 kts 88°
2026-05-06 16:10 40.02846 42.19810 35482 ft 495 kts 88°
2026-05-06 16:11 40.03154 42.24295 34895 ft 498 kts 88°
2026-05-06 16:11 40.03463 42.28846 33815 ft 507 kts 88°
2026-05-06 16:11 40.03772 42.33436 32754 ft 512 kts 88°
2026-05-06 16:11 40.04087 42.38096 31735 ft 516 kts 88°
2026-05-06 16:12 40.04404 42.42739 31033 ft 511 kts 88°
2026-05-06 16:12 40.04717 42.47347 30229 ft 509 kts 88°
2026-05-06 16:12 40.05016 42.51941 29332 ft 508 kts 88°
2026-05-06 16:12 40.05295 42.56437 28695 ft 501 kts 88°
2026-05-06 16:13 40.05565 42.60939 28034 ft 494 kts 88°
2026-05-06 16:13 40.05829 42.65384 27326 ft 488 kts 88°
2026-05-06 16:13 40.06093 42.69771 26640 ft 482 kts 88°
2026-05-06 16:13 40.06353 42.74112 25985 ft 476 kts 88°
2026-05-06 16:14 40.06611 42.78399 25337 ft 471 kts 87°
2026-05-06 16:14 40.06864 42.82632 24697 ft 465 kts 87°
2026-05-06 16:14 40.07112 42.86821 24094 ft 459 kts 87°
2026-05-06 16:14 40.07355 42.90948 23495 ft 454 kts 87°
2026-05-06 16:15 40.07594 42.95028 22932 ft 447 kts 87°
2026-05-06 16:15 40.07828 42.99050 22386 ft 442 kts 87°
2026-05-06 16:15 40.08060 43.03023 21866 ft 436 kts 87°
2026-05-06 16:15 40.08285 43.06941 21354 ft 429 kts 87°
2026-05-06 16:16 40.08503 43.10804 20835 ft 424 kts 87°
2026-05-06 16:16 40.08722 43.14615 20318 ft 419 kts 87°
2026-05-06 16:16 40.08939 43.18389 19800 ft 414 kts 87°
2026-05-06 16:16 40.09152 43.22116 19284 ft 409 kts 87°
2026-05-06 16:17 40.09361 43.25800 18764 ft 405 kts 88°
2026-05-06 16:17 40.09565 43.29454 18232 ft 401 kts 88°
2026-05-06 16:17 40.09764 43.33075 17700 ft 399 kts 88°
2026-05-06 16:17 40.09965 43.36677 17159 ft 396 kts 88°
2026-05-06 16:18 40.10166 43.40253 16620 ft 393 kts 88°
2026-05-06 16:18 40.10363 43.43801 16079 ft 391 kts 88°
2026-05-06 16:18 40.10557 43.47337 15543 ft 389 kts 88°
2026-05-06 16:18 40.10744 43.50848 15012 ft 387 kts 88°
2026-05-06 16:19 40.10929 43.54340 14539 ft 383 kts 88°
2026-05-06 16:19 40.11111 43.57743 14399 ft 368 kts 88°
2026-05-06 16:19 40.11288 43.61019 14273 ft 355 kts 88°
2026-05-06 16:19 40.11465 43.64179 14143 ft 344 kts 85°
2026-05-06 16:20 40.11967 43.67187 14019 ft 335 kts 71°
2026-05-06 16:20 40.12578 43.69035 13925 ft 333 kts 63°
2026-05-06 16:20 40.13635 43.71694 13559 ft 325 kts 63°
2026-05-06 16:20 40.14643 43.74249 13346 ft 308 kts 64°
2026-05-06 16:21 40.15422 43.76798 12908 ft 299 kts 77°
2026-05-06 16:21 40.15729 43.79450 12383 ft 292 kts 91°
2026-05-06 16:21 40.15648 43.82083 11833 ft 289 kts 96°
2026-05-06 16:21 40.15527 43.84687 11290 ft 286 kts 95°
2026-05-06 16:22 40.15414 43.87272 10739 ft 283 kts 95°
2026-05-06 16:22 40.15305 43.89846 10042 ft 285 kts 94°
2026-05-06 16:22 40.15194 43.92411 9556 ft 279 kts 94°
2026-05-06 16:22 40.15083 43.94899 9166 ft 270 kts 94°
2026-05-06 16:23 40.14973 43.97306 8807 ft 261 kts 94°
2026-05-06 16:23 40.14866 43.99627 8455 ft 251 kts 94°
2026-05-06 16:23 40.14768 44.01863 8118 ft 242 kts 94°
2026-05-06 16:23 40.14675 44.04031 7777 ft 237 kts 93°
2026-05-06 16:24 40.14622 44.06174 7468 ft 235 kts 91°
2026-05-06 16:24 40.14596 44.08304 7150 ft 233 kts 91°
2026-05-06 16:24 40.14576 44.10415 6832 ft 232 kts 91°
2026-05-06 16:24 40.14556 44.12515 6517 ft 231 kts 91°
2026-05-06 16:25 40.14541 44.14605 6200 ft 229 kts 90°
2026-05-06 16:25 40.14555 44.16682 5889 ft 228 kts 89°
2026-05-06 16:25 40.14585 44.18730 5582 ft 221 kts 89°
2026-05-06 16:25 40.14605 44.20699 5289 ft 213 kts 89°
2026-05-06 16:26 40.14619 44.22607 5011 ft 208 kts 89°
2026-05-06 16:26 40.14632 44.24484 4742 ft 205 kts 89°
2026-05-06 16:26 40.14646 44.26277 4480 ft 191 kts 89°
2026-05-06 16:26 40.14657 44.27967 4227 ft 181 kts 89°
2026-05-06 16:27 40.14667 44.29563 3992 ft 171 kts 89°
2026-05-06 16:27 40.14676 44.31074 3779 ft 163 kts 89°
2026-05-06 16:27 40.14685 44.32533 3558 ft 158 kts 89°
2026-05-06 16:27 40.14694 44.33963 3353 ft 156 kts 89°
2026-05-06 16:28 40.14703 44.35380 3148 ft 155 kts 90°
2026-05-06 16:28 40.14714 44.36785 2944 ft 154 kts 88°
2026-05-06 16:28 40.14725 44.38156 2830 ft 139 kts 90°
2026-05-06 16:28 40.14730 44.39185 2831 ft 90 kts 89°
2026-05-06 16:29 40.14734 44.39785 2834 ft 42 kts 90°
2026-05-06 16:29 40.14735 44.39971 2836 ft 10 kts 87°
2026-05-06 16:29 40.14752 44.40024 2837 ft 4 kts 43°
2026-05-06 16:29 40.14778 44.40034 2837 ft 5 kts
2026-05-06 16:30 40.14816 44.40034 2836 ft 4 kts
2026-05-06 16:30 40.14827 44.40034 2837 ft 1 kts
2026-05-06 16:30 40.14877 44.40033 2837 ft 5 kts 359°
2026-05-06 16:30 40.14944 44.40031 2837 ft 13 kts 354°
2026-05-06 16:31 40.15039 44.40005 2836 ft 14 kts 360°
2026-05-06 16:31 40.15092 44.40005 2838 ft 0 kts 359°
2026-05-06 16:31 40.15093 44.40005 2838 ft 0 kts 359°